{"data":{"norad_id":69303,"epoch":"2026-09-20T01:18:49.917888Z","epoch_age_seconds":67488,"freshness":"FRESH","line1":"1 69303U 26119H   26263.05474442  .00011675  00000+0  36340-3 0  9997","line2":"2 69303  97.2843 287.7717 0001216  91.3960 268.7422 15.33444127 18591","mean_motion":15.33444127,"eccentricity":0.0001216,"inclination_deg":97.2843,"raan_deg":287.7717,"arg_perigee_deg":91.396,"mean_anomaly_deg":268.7422,"bstar":0.0003634,"rev_number":1859,"period_min":93.906258118265,"perigee_km":464.71358008809,"apogee_km":466.37796373822,"semimajor_km":6843.6827719132,"source":"CELESTRAK","updated_at":"2026-09-20T09:00:44.155308Z"}}